Location: Barrio Las Umbrías
(40.4173°N, 4.8685°W)
Time: 13:41:04
(UTC+00:00)

Meteor 2-6 Rocket - Pass Details

Date: 17 August 2022
Orbit: 806 x 914 km, 81.3° (Epoch: 27 September)

Event Time Altitude Azimuth Distance (km) Brightness Sun altitude
Rises 19:44:53 0° 356° (N) 3,340 7.7 -6.3°
Reaches altitude 10° 19:47:23 10° 2° (N) 2,399 6.9 -6.7°
Maximum altitude 19:52:35 47° 76° (ENE) 1,056 4.4 -7.6°
Drops below altitude 10° 19:57:45 10° 150° (SSE) 2,387 6.1 -8.5°
Enters shadow 19:59:26 - 155° (SSE) 3,020 6.6 -8.8°
